sat.trackr.live / text

‹ back to catalog

USA 169 (MILSTAR-2 4)

NORAD 27711 · 2003-012A

PAYLOAD ACTIVE UNKNOWN

§ Identity

Operator
Country
US
Launch date
2003-04-08
Launch site
AFETR
Launch vehicle
Mass (kg)
RCS (m²)

Purposes: comms

External: N2YO · Heavens-Above · Gunter

§ Orbital elements

Epoch: 2026-09-19T15:58:57.006048Z

Period
1,436.11 min
Inclination
12.4778°
Eccentricity
0.0096602
Mean motion
1.00271201 rev/d
Perigee alt
35,379.4 km
Apogee alt
36,194.1 km
Semi-major
42,164.9 km
B*
0.0000e+0
RAAN
28.1950°
Arg perigee
12.3575°
Mean anomaly
349.9816°
Rev number
3,390

§ Raw data

USA 169 (MILSTAR-2 4)1 27711U 03012A   26262.66593757 -.00000195  00000+0  00000+0 0  99942 27711  12.4778  28.1950 0096602  12.3575 349.9816  1.00271201 33909

JSON: /api/v1/satellites/27711 · /tle

For live sub-satellite position, see the globe view (requires WebGL).

§ Visibility from observer

Set your observer location to see the next 7 days of passes ≥ 10°. The values pass through the URL so the page stays shareable.

No JS? Fill the form by hand. The geolocation button needs JavaScript.